Date_and_time,latitude,longitude,wind_speed,RelWindDirFrom,WindDirFrom,air_pressure,air_temperature,relative_humidity,Temp,platform_speed_wrt_ground,air_pressure_at_mean_sea_level,platform_orientation
2019-11-06 23:50,50.6304516666667,-96.9807716666667,5.1,7.7,306,1006.41,-8.8,49,1.10,0.0,1035.71,293.6
2019-11-07 00:00,50.6304533333333,-96.9807716666667,4.7,6.9,308,1006.44,-8.9,49,1.08,0.0,1035.74,90.0
2019-11-07 00:10,50.6304533333333,-96.9807716666667,3.1,4.6,295,1006.48,-9.0,50,1.09,0.0,1035.81,90.0
2019-11-07 00:20,50.6304333333333,-96.9807816666667,2.6,4.2,281,1006.56,-9.2,51,1.09,0.0,1035.91,90.0
2019-11-07 00:30,50.630445,-96.9807766666667,2.7,3.8,273,1006.61,-9.3,52,1.09,0.0,1035.96,90.0
2019-11-07 00:40,50.6304466666667,-96.9807766666667,2.6,4.4,273,1006.64,-9.4,53,1.09,0.0,1036.00,90.0
2019-11-07 00:50,50.6304466666667,-96.9807783333333,2.8,4.1,277,1006.64,-9.4,53,1.08,0.0,1036.01,90.0
2019-11-07 01:00,50.6304466666667,-96.980775,3.3,5.1,272,1006.64,-9.4,53,1.07,0.0,1036.01,270.0
2019-11-07 01:10,50.6304483333333,-96.9807733333333,3.7,6.7,255,1006.62,-9.6,55,1.07,0.0,1036.00,270.0
2019-11-07 01:20,50.6304483333333,-96.9807716666667,3.6,6.4,257,1006.54,-9.6,58,1.06,0.0,1035.93,270.0
2019-11-07 01:30,50.6304483333333,-96.98077,4.0,6.1,273,1006.55,-9.8,60,1.05,0.0,1035.96,270.0
2019-11-07 01:40,50.6304483333333,-96.98077,4.4,6.2,276,1006.59,-9.9,64,1.05,0.0,1036.00,270.0
2019-11-07 01:50,50.6304483333333,-96.98077,3.8,5.8,281,1006.53,-10.0,66,1.08,0.0,1035.95,270.0
2019-11-07 02:00,50.630435,-96.98076,2.8,5.2,262,1006.52,-10.2,68,1.10,0.0,1035.96,137.0
2019-11-07 02:10,50.6304466666667,-96.9807716666667,3.2,5.0,272,1006.51,-10.2,68,1.11,0.0,1035.96,137.0
2019-11-07 02:20,50.6304433333333,-96.98076,3.6,4.7,246,1006.54,-10.5,69,1.11,0.0,1036.02,137.0
2019-11-07 02:30,50.6304433333333,-96.9807683333333,3.3,5.7,265,1006.48,-10.6,70,1.11,0.0,1035.96,137.0
2019-11-07 02:40,50.6304416666667,-96.9807666666667,3.6,6.6,274,1006.48,-10.4,69,1.10,0.0,1035.95,137.0
2019-11-07 02:50,50.6304433333333,-96.980765,4.2,6.4,279,1006.44,-10.2,68,1.09,0.0,1035.90,137.0
2019-11-07 03:00,50.630445,-96.9807616666667,4.0,6.3,276,1006.40,-10.2,66,1.09,0.0,1035.87,143.4
2019-11-07 03:10,50.630445,-96.9807633333333,3.6,5.6,264,1006.42,-10.3,67,1.08,0.0,1035.90,143.4
2019-11-07 03:20,50.630445,-96.980765,3.5,4.7,265,1006.41,-10.5,68,1.08,0.0,1035.90,143.4
2019-11-07 03:30,50.6304483333333,-96.9807816666667,3.9,6.1,267,1006.41,-10.6,68,1.08,0.0,1035.92,143.4
2019-11-07 03:40,50.6304483333333,-96.9807783333333,4.6,6.9,257,1006.40,-10.7,67,1.08,0.0,1035.92,143.4
2019-11-07 03:50,50.630445,-96.980775,4.4,7.0,260,1006.38,-10.8,68,1.08,0.0,1035.91,143.4
2019-11-07 04:00,50.630445,-96.9807716666667,4.4,7.7,261,1006.36,-10.8,66,1.08,0.0,1035.89,360.0
2019-11-07 04:10,50.6304433333333,-96.98077,4.5,5.8,249,1006.33,-11.0,67,1.07,0.0,1035.89,360.0
2019-11-07 04:20,50.6304533333333,-96.980765,4.2,5.9,247,1006.33,-11.3,68,1.06,0.0,1035.91,360.0
2019-11-07 04:30,50.63045,-96.9807983333333,4.0,5.2,242,1006.36,-11.4,69,1.06,0.0,1035.94,360.0
2019-11-07 04:40,50.63044,-96.9807683333333,3.5,5.1,262,1006.32,-11.5,70,1.07,0.0,1035.89,360.0
2019-11-07 04:50,50.6304416666667,-96.9807616666667,3.2,4.8,261,1006.25,-11.5,70,1.07,0.0,1035.82,360.0
2019-11-07 05:00,50.6304416666667,-96.9807683333333,3.9,5.0,251,1006.22,-11.8,70,1.07,0.0,1035.81,311.7
2019-11-07 05:10,50.6304416666667,-96.98077,4.4,5.7,254,1006.19,-12.0,70,1.06,0.0,1035.80,311.7
2019-11-07 05:20,50.6304416666667,-96.9807716666667,3.9,6.3,256,1006.13,-12.0,71,1.07,0.0,1035.75,311.7
2019-11-07 05:30,50.6304416666667,-96.9807733333333,4.6,6.1,251,1006.07,-12.1,70,1.08,0.0,1035.70,311.7
2019-11-07 05:40,50.63044,-96.9807733333333,4.7,6.0,254,1006.02,-12.0,69,1.09,0.0,1035.65,311.7
2019-11-07 05:50,50.6304383333333,-96.9807733333333,4.6,6.2,251,1006.01,-12.0,69,1.11,0.0,1035.63,311.7
2019-11-07 06:00,50.630445,-96.98078,4.1,5.7,249,1006.03,-11.8,69,1.11,0.0,1035.66,270.0
2019-11-07 06:10,50.6304466666667,-96.9807466666667,4.0,5.3,250,1006.04,-11.6,68,1.10,0.0,1035.68,270.0
2019-11-07 06:20,50.6304383333333,-96.98075,3.3,4.4,248,1005.92,-11.5,68,1.09,0.0,1035.55,270.0
2019-11-07 06:30,50.6304366666667,-96.9807516666667,3.5,5.0,238,1005.84,-11.2,68,1.07,0.0,1035.46,270.0
2019-11-07 06:40,50.6304583333333,-96.9807866666667,4.1,5.1,236,1005.82,-11.0,68,1.06,0.0,1035.43,270.0
2019-11-07 06:50,50.63044,-96.9807616666667,3.7,5.2,239,1005.74,-11.0,69,1.06,0.0,1035.36,270.0
2019-11-07 07:00,50.630435,-96.9807616666667,3.9,5.4,232,1005.66,-11.1,69,1.05,0.0,1035.29,119.2
2019-11-07 07:10,50.630435,-96.9807616666667,4.3,6.6,225,1005.55,-10.9,69,1.00,0.0,1035.17,119.2
2019-11-07 07:20,50.630435,-96.9807633333333,4.4,6.0,222,1005.46,-10.7,68,0.97,0.0,1035.07,119.2
2019-11-07 07:30,50.6304333333333,-96.9807633333333,4.8,6.7,216,1005.40,-10.6,66,0.98,0.0,1035.00,119.2
2019-11-07 07:40,50.630435,-96.9807633333333,4.3,5.5,221,1005.32,-10.4,66,1.01,0.0,1034.90,119.2
2019-11-07 07:50,50.6304366666667,-96.9807633333333,4.7,6.1,222,1005.23,-10.3,64,1.02,0.0,1034.80,119.2
2019-11-07 08:00,50.6304366666667,-96.9807633333333,5.1,6.7,214,1005.17,-10.4,67,1.02,0.0,1034.73,142.0
2019-11-07 08:10,50.6304366666667,-96.9807633333333,5.1,7.0,213,1005.14,-10.3,68,1.01,0.0,1034.68,142.0
2019-11-07 08:20,50.630435,-96.980765,5.2,7.3,215,1005.02,-10.2,69,1.01,0.0,1034.55,142.0
2019-11-07 08:30,50.6304283333333,-96.9807883333333,5.9,7.4,206,1004.99,-10.2,70,1.01,0.0,1034.49,142.0
2019-11-07 08:40,50.6304266666667,-96.9807866666667,5.8,7.7,207,1004.93,-10.0,71,1.02,0.0,1034.42,142.0
2019-11-07 08:50,50.6304433333333,-96.9807733333333,5.9,7.5,207,1004.88,-10.0,71,1.04,0.0,1034.38,142.0
2019-11-07 09:00,50.630435,-96.9807566666667,5.9,7.5,202,1004.85,-10.1,72,1.05,0.0,1034.34,106.8
2019-11-07 09:10,50.6304333333333,-96.9807616666667,6.5,7.8,198,1004.67,-9.9,73,1.05,0.0,1034.13,106.8
2019-11-07 09:20,50.630435,-96.980765,6.0,7.6,199,1004.58,-9.8,74,1.05,0.0,1034.03,106.8
2019-11-07 09:30,50.630445,-96.9807666666667,5.6,7.0,206,1004.54,-9.8,74,1.05,0.0,1033.98,106.8
2019-11-07 09:40,50.63044,-96.9807633333333,4.9,6.5,215,1004.55,-9.8,74,1.10,0.0,1033.99,106.8
2019-11-07 09:50,50.6304383333333,-96.980765,4.2,6.4,229,1004.49,-9.7,74,1.12,0.0,1033.91,106.8
2019-11-07 10:00,50.6304383333333,-96.9807633333333,3.5,5.5,243,1004.40,-9.7,75,1.11,0.0,1033.82,347.4
2019-11-07 10:10,50.6304366666667,-96.9807666666667,4.2,7.0,221,1004.24,-9.6,76,1.09,0.0,1033.64,347.4
2019-11-07 10:20,50.630435,-96.9807683333333,4.8,6.5,217,1004.16,-9.6,77,1.09,0.0,1033.56,347.4
2019-11-07 10:30,50.6304166666667,-96.980775,4.7,6.5,212,1004.16,-9.7,77,1.09,0.0,1033.56,347.4
2019-11-07 10:40,50.6304133333333,-96.9807733333333,5.1,6.3,213,1004.16,-9.8,77,1.09,0.0,1033.57,347.4
2019-11-07 10:50,50.630415,-96.9807733333333,5.0,6.7,216,1004.15,-10.0,79,1.09,0.0,1033.57,347.4
2019-11-07 11:00,50.6304166666667,-96.9807766666667,5.1,6.8,216,1004.14,-10.1,79,1.09,0.0,1033.56,360.0
2019-11-07 11:10,50.6304333333333,-96.9807966666667,4.9,6.4,219,1004.14,-10.2,81,1.09,0.0,1033.56,360.0
2019-11-07 11:20,50.6304316666667,-96.9807966666667,4.9,6.7,219,1004.14,-10.4,81,1.09,0.0,1033.57,360.0
2019-11-07 11:30,50.6304416666667,-96.980795,4.7,6.4,223,1004.10,-10.4,83,1.08,0.0,1033.52,360.0
2019-11-07 11:40,50.63044,-96.9807933333333,5.2,7.2,223,1004.10,-10.5,84,1.08,0.0,1033.53,360.0
2019-11-07 11:50,50.6304416666667,-96.9807866666667,5.9,7.9,220,1003.97,-10.8,84,1.07,0.0,1033.41,360.0
2019-11-07 12:00,50.6304383333333,-96.9807816666667,5.9,7.7,223,1003.94,-11.0,84,1.06,0.0,1033.38,287.7
2019-11-07 12:10,50.6304083333333,-96.9807783333333,5.7,7.3,223,1003.96,-11.1,85,1.05,0.0,1033.40,287.7
2019-11-07 12:20,50.6304166666667,-96.980785,5.7,7.6,228,1003.98,-11.3,85,1.05,0.0,1033.45,287.7
2019-11-07 12:30,50.6304283333333,-96.98078,5.5,7.4,229,1003.91,-11.5,86,1.02,0.0,1033.39,287.7
2019-11-07 12:40,50.630425,-96.980775,5.6,7.5,232,1003.87,-11.7,85,1.00,0.0,1033.37,287.7
2019-11-07 12:50,50.6304283333333,-96.9807583333333,5.3,7.2,226,1003.86,-11.7,86,1.01,0.0,1033.37,287.7
2019-11-07 13:00,50.6304383333333,-96.980795,5.7,7.3,224,1003.79,-11.7,85,1.01,0.0,1033.31,270.0
2019-11-07 13:10,50.63044,-96.980775,5.2,6.7,225,1003.72,-11.9,85,1.01,0.0,1033.25,270.0
2019-11-07 13:20,50.630435,-96.9807666666667,4.5,6.8,230,1003.72,-12.0,86,1.01,0.0,1033.26,270.0
2019-11-07 13:30,50.63043,-96.9807683333333,5.0,6.5,226,1003.81,-12.0,86,1.02,0.0,1033.36,270.0
2019-11-07 13:40,50.63043,-96.9807716666667,4.8,7.0,225,1003.86,-12.1,86,1.00,0.0,1033.43,270.0
2019-11-07 13:50,50.6304133333333,-96.9807733333333,4.8,6.8,236,1003.86,-12.4,86,1.00,0.0,1033.46,270.0
2019-11-07 14:00,50.6304183333333,-96.9807833333333,5.3,6.9,236,1003.87,-12.5,86,1.00,0.0,1033.48,270.0
2019-11-07 14:10,50.6304216666667,-96.980775,6.2,7.9,231,1003.92,-12.3,84,1.00,0.0,1033.53,270.0
2019-11-07 14:20,50.6304266666667,-96.9807783333333,6.2,8.1,234,1003.99,-12.2,83,1.00,0.0,1033.61,270.0
2019-11-07 14:30,50.630425,-96.9807733333333,5.8,7.9,234,1004.03,-12.1,82,1.00,0.0,1033.65,270.0
2019-11-07 14:40,50.6304466666667,-96.98077,6.1,7.9,238,1004.02,-12.0,82,1.00,0.0,1033.64,270.0
2019-11-07 14:50,50.6304316666667,-96.980785,5.8,7.2,230,1004.02,-11.7,81,1.00,0.0,1033.63,270.0
2019-11-07 15:00,50.6304316666667,-96.9807833333333,6.4,8.3,233,1004.06,-11.4,81,1.00,0.0,1033.67,360.0
2019-11-07 15:10,50.6304366666667,-96.98078,5.4,6.9,233,1004.06,-11.0,80,1.00,0.0,1033.64,360.0
2019-11-07 15:20,50.6304383333333,-96.9807783333333,5.4,7.0,232,1004.13,-10.7,79,1.00,0.0,1033.69,360.0
2019-11-07 15:30,50.630435,-96.9807733333333,6.6,8.1,227,1004.06,-10.4,78,0.98,0.0,1033.62,360.0
2019-11-07 15:40,50.630435,-96.980775,6.0,7.4,224,1004.04,-10.1,78,0.98,0.0,1033.59,360.0
2019-11-07 15:50,50.630455,-96.98078,5.8,8.0,231,1004.04,-9.6,77,0.98,0.0,1033.57,360.0
2019-11-07 16:00,50.63045,-96.9807766666667,6.5,8.7,236,1004.04,-9.4,75,0.98,0.0,1033.55,57.7
2019-11-07 16:10,50.6304483333333,-96.9807766666667,6.9,9.5,241,1004.10,-9.1,72,0.98,0.0,1033.59,57.7
2019-11-07 16:20,50.6304466666667,-96.9807733333333,6.3,9.1,242,1004.14,-8.8,71,0.98,0.0,1033.61,57.7
2019-11-07 16:30,50.6304466666667,-96.9807716666667,5.7,8.9,241,1004.12,-8.5,69,1.00,0.0,1033.57,57.7
2019-11-07 16:40,50.6304466666667,-96.9807716666667,5.5,8.6,229,1004.14,-8.1,67,1.02,0.0,1033.54,57.7
2019-11-07 16:50,50.630445,-96.98077,6.6,9.6,251,1004.19,-7.8,65,1.03,0.0,1033.56,57.7
2019-11-07 17:00,50.630445,-96.9807566666667,6.6,9.5,241,1004.23,-8.3,67,1.03,0.0,1033.61,33.7
2019-11-07 17:10,50.630455,-96.98077,4.9,7.5,234,1004.22,-8.3,68,1.03,0.0,1033.57,33.7
2019-11-07 17:20,50.63045,-96.9807533333333,5.0,6.9,205,1004.11,-8.3,67,1.03,0.0,1033.45,33.7
2019-11-07 17:30,50.6304516666667,-96.98076,3.9,8.8,243,1004.10,-8.0,65,1.04,0.0,1033.40,33.7
2019-11-07 17:40,50.63045,-96.9807583333333,5.1,8.9,259,1004.08,-7.8,57,1.03,0.0,1033.34,33.7
2019-11-07 17:50,50.63045,-96.98076,5.4,8.4,258,1003.97,-7.8,56,1.03,0.0,1033.22,33.7
2019-11-07 18:00,50.63045,-96.9807616666667,5.9,8.8,252,1003.85,-7.8,57,1.03,0.0,1033.08,36.6
2019-11-07 18:10,50.6304483333333,-96.9807616666667,5.9,9.9,280,1003.77,-7.8,58,1.02,0.0,1032.98,36.6
2019-11-07 18:20,50.6304483333333,-96.9807633333333,6.6,8.8,256,1003.83,-7.8,56,1.02,0.0,1033.02,36.6
2019-11-07 18:30,50.63045,-96.980765,5.0,8.9,268,1003.78,-7.8,57,1.02,0.0,1032.95,36.6
2019-11-07 18:40,50.63045,-96.9807633333333,6.7,9.4,258,1003.77,-7.9,61,1.02,0.0,1032.93,36.6
2019-11-07 18:50,50.63045,-96.9807616666667,4.8,10.0,255,1003.73,-8.1,66,1.02,0.0,1032.93,36.6
2019-11-07 19:00,50.6304483333333,-96.9807633333333,4.0,6.9,264,1003.62,-7.8,63,1.02,0.0,1032.80,167.4
2019-11-07 19:10,50.63045,-96.9807816666667,4.2,8.0,269,1003.56,-7.6,61,1.01,0.0,1032.73,167.4
2019-11-07 19:20,50.6304466666667,-96.9807733333333,3.2,5.7,247,1003.48,-7.6,60,1.01,0.0,1032.63,167.4
2019-11-07 19:30,50.6304466666667,-96.98077,4.8,9.2,252,1003.43,-7.4,58,1.00,0.0,1032.55,167.4
2019-11-07 19:40,50.6304483333333,-96.9807733333333,5.0,7.4,255,1003.34,-7.4,58,1.00,0.0,1032.47,167.4
2019-11-07 19:50,50.6304483333333,-96.98077,5.0,8.1,253,1003.19,-7.4,59,0.99,0.0,1032.31,167.4
2019-11-07 20:00,50.6304483333333,-96.9807666666667,5.0,8.4,251,1003.09,-7.4,60,0.99,0.0,1032.20,347.4
2019-11-07 20:10,50.6304466666667,-96.9807666666667,3.9,7.5,288,1002.93,-7.3,61,0.98,0.0,1032.03,347.4
2019-11-07 20:20,50.630445,-96.9807783333333,4.5,6.8,288,1002.92,-7.3,59,0.98,0.0,1032.02,347.4
2019-11-07 20:30,50.6304483333333,-96.9807716666667,5.3,8.1,246,1002.91,-7.2,59,0.98,0.0,1032.02,347.4
2019-11-07 20:40,50.6304,-96.980775,5.9,8.8,228,1002.87,-7.2,59,0.98,0.0,1031.98,347.4
2019-11-07 20:50,50.63043,-96.9807433333333,6.6,10.7,225,1002.77,-7.2,60,0.98,0.0,1031.87,347.4
2019-11-07 21:00,50.630445,-96.98077,8.7,11.8,214,1002.75,-7.3,64,0.97,0.0,1031.84,360.0
2019-11-07 21:10,50.6304416666667,-96.9807683333333,5.5,7.6,218,1002.79,-7.3,64,0.96,0.0,1031.88,360.0
2019-11-07 21:20,50.6304433333333,-96.9807683333333,6.1,8.7,207,1002.76,-7.1,60,0.95,0.0,1031.83,360.0
2019-11-07 21:30,50.6304433333333,-96.9807666666667,7.5,11.0,233,1002.84,-6.9,56,0.94,0.0,1031.90,360.0
2019-11-07 21:40,50.6304433333333,-96.980765,7.4,10.1,230,1002.85,-6.9,55,0.93,0.0,1031.91,360.0
2019-11-07 21:50,50.630445,-96.9807666666667,6.8,12.5,223,1002.85,-6.5,53,0.92,0.0,1031.89,360.0
2019-11-07 22:00,50.630445,-96.9807683333333,8.5,12.8,239,1002.91,-6.4,51,0.92,0.0,1031.93,360.0
2019-11-07 22:10,50.63045,-96.9807633333333,8.1,11.3,230,1002.93,-6.8,52,0.93,0.0,1031.98,360.0
2019-11-07 22:20,50.6304433333333,-96.98077,6.7,10.9,236,1002.91,-6.9,51,0.95,0.0,1031.96,360.0
2019-11-07 22:30,50.63044,-96.980775,5.6,7.4,230,1002.83,-6.7,51,0.97,0.0,1031.87,360.0
2019-11-07 22:40,50.6304416666667,-96.9807933333333,4.7,6.1,224,1002.76,-6.7,51,1.00,0.0,1031.79,360.0
2019-11-07 22:50,50.6304483333333,-96.9807633333333,4.1,6.2,232,1002.75,-6.9,53,1.02,0.0,1031.81,360.0
2019-11-07 23:00,50.6304483333333,-96.9807666666667,3.7,5.6,241,1002.69,-7.3,54,1.04,0.0,1031.76,0.0
2019-11-07 23:10,50.630445,-96.980775,3.1,5.0,242,1002.58,-7.5,55,1.05,0.0,1031.64,0.0
2019-11-07 23:20,50.6304466666667,-96.9807716666667,2.8,4.0,251,1002.51,-7.7,55,1.05,0.0,1031.57,0.0
2019-11-07 23:30,50.630445,-96.9807716666667,2.6,3.4,230,1002.49,-7.8,57,1.06,0.0,1031.56,0.0
2019-11-07 23:40,50.630445,-96.9807716666667,3.7,4.6,219,1002.53,-7.8,57,1.07,0.0,1031.58,0.0
2019-11-07 23:50,50.6304483333333,-96.9807733333333,4.3,5.4,218,1002.48,-8.0,56,1.07,0.0,1031.53,0.0
